When you browse on this site, cookies collect data to enhance your experience and personalize the content and advertising you see.
Visit our Privacy Policy to learn more. By continuing to use the site, you agree to this use of cookies and data.
  • în România
  • Lista ţărilor
  • Pe 7 zile
  • Temperatura apei
  • Hartă satelitară
  • Meteo pe hartă
  • Widget-uri
  • user-avatar
    Intrare

    Meteo pe oră la Neuquén

    Astăzi, 27 Iunie, Joi

    Timp Temperatura Precipitaţii Vânt Presiune Umiditate
    00:00 +10°C° 0 mm 3 m/s 723 mmHg 58%
    01:00 +10°C° 0 mm 4 m/s 723 mmHg 56%
    02:00 +10°C° 0 mm 4 m/s 722 mmHg 56%
    03:00 +10°C° 0 mm 4 m/s 722 mmHg 57%
    04:00 +10°C° 0 mm 4 m/s 721 mmHg 57%
    05:00 +9°C° 0 mm 5 m/s 722 mmHg 59%
    06:00 +8°C° 0 mm 6 m/s 722 mmHg 60%
    07:00 +8°C° 0 mm 6 m/s 723 mmHg 62%
    08:00 +9°C° 0 mm 7 m/s 723 mmHg 57%
    09:00 +11°C° 0 mm 8 m/s 724 mmHg 52%
    10:00 +12°C° 0 mm 9 m/s 724 mmHg 47%
    11:00 +13°C° 0 mm 9 m/s 724 mmHg 44%
    12:00 +15°C° 0 mm 9 m/s 723 mmHg 41%
    13:00 +15°C° 0 mm 9 m/s 723 mmHg 37%
    14:00 +15°C° 0 mm 8 m/s 723 mmHg 40%
    15:00 +14°C° 0 mm 6 m/s 723 mmHg 42%
    16:00 +14°C° 0 mm 4 m/s 723 mmHg 45%
    17:00 +13°C° 0 mm 4 m/s 724 mmHg 48%
    18:00 +12°C° 0 mm 3 m/s 724 mmHg 51%
    19:00 +12°C° 0 mm 3 m/s 725 mmHg 54%
    20:00 +11°C° 0.2 mm 3 m/s 725 mmHg 60%
    21:00 +10°C° 0.2 mm 2 m/s 725 mmHg 65%
    22:00 +10°C° 0.2 mm 2 m/s 725 mmHg 71%
    23:00 +9°C° 0 mm 2 m/s 726 mmHg 71%

    Mâine, 28 Iunie, Vineri

    Timp Temperatura Precipitaţii Vânt Presiune Umiditate
    00:00 +9°C° 0 mm 2 m/s 726 mmHg 71%
    01:00 +10°C° 0 mm 1 m/s 726 mmHg 71%
    02:00 +9°C° 0 mm 2 m/s 727 mmHg 72%
    03:00 +9°C° 0 mm 2 m/s 727 mmHg 72%
    04:00 +8°C° 0 mm 2 m/s 727 mmHg 73%
    05:00 +8°C° 0 mm 2 m/s 728 mmHg 73%
    06:00 +8°C° 0 mm 2 m/s 729 mmHg 73%
    07:00 +8°C° 0 mm 3 m/s 729 mmHg 74%
    08:00 +9°C° 0 mm 3 m/s 730 mmHg 68%
    09:00 +10°C° 0 mm 3 m/s 730 mmHg 62%
    10:00 +11°C° 0 mm 3 m/s 731 mmHg 56%
    11:00 +11°C° 0 mm 3 m/s 731 mmHg 57%
    12:00 +11°C° 0 mm 4 m/s 731 mmHg 58%
    13:00 +10°C° 0 mm 5 m/s 731 mmHg 59%
    14:00 +9°C° 0 mm 5 m/s 731 mmHg 63%
    15:00 +8°C° 0 mm 6 m/s 731 mmHg 68%
    16:00 +7°C° 0 mm 6 m/s 731 mmHg 72%
    17:00 +7°C° 0 mm 6 m/s 732 mmHg 73%
    18:00 +5°C° 0 mm 6 m/s 732 mmHg 74%
    19:00 +5°C° 0 mm 6 m/s 733 mmHg 75%
    20:00 +5°C° 0 mm 6 m/s 733 mmHg 75%
    21:00 +6°C° 0 mm 5 m/s 733 mmHg 74%
    22:00 +6°C° 0 mm 5 m/s 733 mmHg 74%
    23:00 +6°C° 0.1 mm 5 m/s 733 mmHg 76%

    Poimâine, 29 Iunie, Sâmbătă

    Timp Temperatura Precipitaţii Vânt Presiune Umiditate
    00:00 +6°C° 0.1 mm 4 m/s 733 mmHg 78%
    01:00 +6°C° 0.1 mm 4 m/s 733 mmHg 80%
    02:00 +5°C° 0.1 mm 4 m/s 733 mmHg 82%
    03:00 +5°C° 0.1 mm 4 m/s 733 mmHg 83%
    04:00 +5°C° 0.1 mm 4 m/s 732 mmHg 85%
    05:00 +5°C° 0.1 mm 4 m/s 733 mmHg 85%
    06:00 +5°C° 0.1 mm 4 m/s 733 mmHg 85%
    07:00 +5°C° 0.1 mm 3 m/s 733 mmHg 86%
    08:00 +7°C° 1 mm 3 m/s 733 mmHg 87%
    09:00 +7°C° 1 mm 3 m/s 733 mmHg 89%
    10:00 +7°C° 1 mm 2 m/s 734 mmHg 90%
    11:00 +7°C° 1.2 mm 2 m/s 734 mmHg 90%
    12:00 +7°C° 1.2 mm 3 m/s 733 mmHg 89%
    13:00 +7°C° 1.2 mm 3 m/s 733 mmHg 89%
    14:00 +7°C° 0.2 mm 2 m/s 733 mmHg 88%
    15:00 +8°C° 0.2 mm 2 m/s 733 mmHg 87%
    16:00 +8°C° 0.2 mm 2 m/s 733 mmHg 86%
    17:00 +8°C° 0.1 mm 2 m/s 734 mmHg 86%
    18:00 +7°C° 0.1 mm 2 m/s 734 mmHg 87%
    19:00 +7°C° 0.1 mm 2 m/s 735 mmHg 87%
    20:00 +5°C° 0 mm 3 m/s 735 mmHg 84%
    21:00 +5°C° 0 mm 3 m/s 735 mmHg 80%
    22:00 +5°C° 0 mm 4 m/s 735 mmHg 77%
    23:00 +3°C° 0 mm 5 m/s 736 mmHg 71%

    30 Iunie, Duminică

    Timp Temperatura Precipitaţii Vânt Presiune Umiditate
    00:00 +3°C° 0 mm 5 m/s 736 mmHg 66%
    01:00 +3°C° 0 mm 5 m/s 736 mmHg 60%
    02:00 +2°C° 0 mm 5 m/s 736 mmHg 59%
    03:00 +2°C° 0 mm 5 m/s 736 mmHg 58%
    04:00 +3°C° 0 mm 4 m/s 736 mmHg 58%
    05:00 +1°C° 0 mm 4 m/s 737 mmHg 57%
    06:00 +1°C° 0 mm 4 m/s 738 mmHg 57%
    07:00 +2°C° 0 mm 3 m/s 738 mmHg 57%
    08:00 +3°C° 0 mm 4 m/s 739 mmHg 54%
    09:00 +3°C° 0 mm 5 m/s 740 mmHg 51%
    10:00 +4°C° 0 mm 6 m/s 741 mmHg 48%
    11:00 +4°C° 0 mm 6 m/s 741 mmHg 47%
    12:00 +6°C° 0 mm 5 m/s 741 mmHg 47%
    13:00 +6°C° 0 mm 5 m/s 741 mmHg 46%
    14:00 +6°C° 0 mm 4 m/s 741 mmHg 48%
    15:00 +5°C° 0 mm 4 m/s 742 mmHg 50%
    16:00 +5°C° 0 mm 3 m/s 742 mmHg 51%
    17:00 +4°C° 0 mm 3 m/s 742 mmHg 55%
    18:00 +5°C° 0 mm 2 m/s 742 mmHg 59%
    19:00 +4°C° 0 mm 2 m/s 743 mmHg 63%
    20:00 +4°C° 0 mm 2 m/s 743 mmHg 64%
    21:00 +3°C° 0 mm 2 m/s 743 mmHg 65%
    22:00 +4°C° 0 mm 1 m/s 742 mmHg 66%
    23:00 +3°C° 0 mm 2 m/s 742 mmHg 67%

    1 Iulie, Luni

    Timp Temperatura Precipitaţii Vânt Presiune Umiditate
    00:00 +3°C° 0 mm 2 m/s 741 mmHg 69%
    01:00 +2°C° 0 mm 2 m/s 741 mmHg 70%
    02:00 +1°C° 0 mm 3 m/s 740 mmHg 72%
    03:00 +1°C° 0 mm 3 m/s 739 mmHg 73%
    04:00 +1°C° 0 mm 3 m/s 738 mmHg 75%
    05:00 +1°C° 0 mm 3 m/s 738 mmHg 75%
    06:00 +1°C° 0 mm 3 m/s 737 mmHg 74%
    07:00 +1°C° 0 mm 3 m/s 737 mmHg 74%
    08:00 +1°C° 0 mm 4 m/s 736 mmHg 68%
    09:00 +3°C° 0 mm 5 m/s 735 mmHg 61%
    10:00 +5°C° 0 mm 5 m/s 734 mmHg 54%
    11:00 +5°C° 0 mm 6 m/s 733 mmHg 50%
    12:00 +7°C° 0 mm 6 m/s 732 mmHg 45%
    13:00 +8°C° 0 mm 6 m/s 731 mmHg 41%
    14:00 +8°C° 0 mm 5 m/s 731 mmHg 42%
    15:00 +8°C° 0 mm 4 m/s 731 mmHg 43%
    16:00 +7°C° 0 mm 4 m/s 731 mmHg 45%
    17:00 +7°C° 0 mm 5 m/s 731 mmHg 42%
    18:00 +7°C° 0 mm 6 m/s 731 mmHg 40%
    19:00 +8°C° 0 mm 7 m/s 731 mmHg 37%
    20:00 +7°C° 0 mm 6 m/s 731 mmHg 39%
    21:00 +7°C° 0 mm 6 m/s 731 mmHg 42%
    22:00 +6°C° 0 mm 5 m/s 731 mmHg 44%
    23:00 +5°C° 0 mm 6 m/s 731 mmHg 48%

    2 Iulie, Marţi

    Timp Temperatura Precipitaţii Vânt Presiune Umiditate
    00:00 +5°C° 0 mm 6 m/s 731 mmHg 51%
    01:00 +5°C° 0 mm 7 m/s 731 mmHg 55%
    02:00 +5°C° 0 mm 7 m/s 731 mmHg 57%
    03:00 +4°C° 0 mm 7 m/s 731 mmHg 58%
    04:00 +4°C° 0 mm 6 m/s 731 mmHg 60%
    05:00 +4°C° 0 mm 7 m/s 731 mmHg 60%
    06:00 +4°C° 0 mm 7 m/s 731 mmHg 61%
    07:00 +4°C° 0 mm 8 m/s 731 mmHg 61%
    08:00 +6°C° 0 mm 8 m/s 731 mmHg 55%
    09:00 +7°C° 0 mm 9 m/s 731 mmHg 48%
    10:00 +9°C° 0 mm 10 m/s 731 mmHg 41%
    11:00 +11°C° 0 mm 9 m/s 731 mmHg 39%
    12:00 +12°C° 0 mm 8 m/s 730 mmHg 36%
    13:00 +13°C° 0 mm 8 m/s 729 mmHg 34%
    14:00 +12°C° 0 mm 7 m/s 729 mmHg 36%
    15:00 +12°C° 0 mm 5 m/s 728 mmHg 38%
    16:00 +12°C° 0 mm 4 m/s 728 mmHg 41%
    17:00 +10°C° 0 mm 5 m/s 728 mmHg 44%
    18:00 +10°C° 0 mm 6 m/s 728 mmHg 47%
    19:00 +9°C° 0 mm 7 m/s 728 mmHg 49%
    20:00 +9°C° 0 mm 8 m/s 728 mmHg 50%
    21:00 +8°C° 0 mm 9 m/s 728 mmHg 51%
    22:00 +8°C° 0 mm 10 m/s 729 mmHg 51%
    23:00 +8°C° 0 mm 10 m/s 729 mmHg 53%
    Arată mai mult